Year,Month,Day,Hour,Minute,Value (Times are PST for temperature in C)
2018,11,16,00,00,10.60
2018,11,16,00,01,10.60
2018,11,16,00,02,10.60
2018,11,16,00,03,10.60
2018,11,16,00,04,10.50
2018,11,16,00,05,10.50
2018,11,16,00,06,10.50
2018,11,16,00,07,10.50
2018,11,16,00,08,10.50
2018,11,16,00,09,10.50
2018,11,16,00,10,10.40
2018,11,16,00,11,10.40
2018,11,16,00,12,10.40
2018,11,16,00,13,10.40
2018,11,16,00,14,10.40
2018,11,16,00,15,10.40
2018,11,16,00,16,10.40
2018,11,16,00,17,10.40
2018,11,16,00,18,10.40
2018,11,16,00,19,10.40
2018,11,16,00,20,10.40
2018,11,16,00,21,10.40
2018,11,16,00,22,10.40
2018,11,16,00,23,10.40
2018,11,16,00,24,10.40
2018,11,16,00,25,10.40
2018,11,16,00,26,10.40
2018,11,16,00,27,10.40
2018,11,16,00,28,10.40
2018,11,16,00,29,10.40
2018,11,16,00,30,10.40
2018,11,16,00,31,10.40
2018,11,16,00,32,10.40
2018,11,16,00,33,10.40
2018,11,16,00,34,10.40
2018,11,16,00,35,10.40
2018,11,16,00,36,10.40
2018,11,16,00,37,10.40
2018,11,16,00,38,10.40
2018,11,16,00,39,10.40
2018,11,16,00,40,10.40
2018,11,16,00,41,10.40
2018,11,16,00,42,10.40
2018,11,16,00,43,10.40
2018,11,16,00,44,10.40
2018,11,16,00,45,10.40
2018,11,16,00,46,10.40
2018,11,16,00,47,10.40
2018,11,16,00,48,10.40
2018,11,16,00,49,10.50
2018,11,16,00,50,10.40
2018,11,16,00,51,10.50
2018,11,16,00,52,10.50
2018,11,16,00,53,10.50
2018,11,16,00,54,10.50
2018,11,16,00,55,10.50
2018,11,16,00,56,10.50
2018,11,16,00,57,10.50
2018,11,16,00,58,10.50
2018,11,16,00,59,10.50
2018,11,16,01,00,10.50
2018,11,16,01,01,10.50
2018,11,16,01,02,10.50
2018,11,16,01,03,10.50
2018,11,16,01,04,10.50
2018,11,16,01,05,10.50
2018,11,16,01,06,10.50
2018,11,16,01,07,10.50
2018,11,16,01,08,10.40
2018,11,16,01,09,10.50
2018,11,16,01,10,10.40
2018,11,16,01,11,10.50
2018,11,16,01,12,10.40
2018,11,16,01,13,10.40
2018,11,16,01,14,10.40
2018,11,16,01,15,10.40
2018,11,16,01,16,10.40
2018,11,16,01,17,10.40
2018,11,16,01,18,10.40
2018,11,16,01,19,10.40
2018,11,16,01,20,10.40
2018,11,16,01,21,10.40
2018,11,16,01,22,10.40
2018,11,16,01,23,10.40
2018,11,16,01,24,10.40
2018,11,16,01,25,10.40
2018,11,16,01,26,10.40
2018,11,16,01,27,10.40
2018,11,16,01,28,10.40
2018,11,16,01,29,10.40
2018,11,16,01,30,10.40
2018,11,16,01,31,10.40
2018,11,16,01,32,10.40
2018,11,16,01,33,10.40
2018,11,16,01,34,10.40
2018,11,16,01,35,10.40
2018,11,16,01,36,10.40
2018,11,16,01,37,10.40
2018,11,16,01,38,10.40
2018,11,16,01,39,10.30
2018,11,16,01,40,10.40
2018,11,16,01,41,10.40
2018,11,16,01,42,10.30
2018,11,16,01,43,10.30
2018,11,16,01,44,10.30
2018,11,16,01,45,10.30
2018,11,16,01,46,10.30
2018,11,16,01,47,10.30
2018,11,16,01,48,10.30
2018,11,16,01,49,10.30
2018,11,16,01,50,10.30
2018,11,16,01,51,10.30
2018,11,16,01,52,10.30
2018,11,16,01,53,10.40
2018,11,16,01,54,10.40
2018,11,16,01,55,10.40
2018,11,16,01,56,10.40
2018,11,16,01,57,10.40
2018,11,16,01,58,10.40
2018,11,16,01,59,10.30
2018,11,16,02,00,10.30
2018,11,16,02,01,10.30
2018,11,16,02,02,10.30
2018,11,16,02,03,10.30
2018,11,16,02,04,10.30
2018,11,16,02,05,10.30
2018,11,16,02,06,10.30
2018,11,16,02,07,10.30
2018,11,16,02,08,10.30
2018,11,16,02,09,10.30
2018,11,16,02,10,10.30
2018,11,16,02,11,10.40
2018,11,16,02,12,10.30
2018,11,16,02,13,10.40
2018,11,16,02,14,10.40
2018,11,16,02,15,10.40
2018,11,16,02,16,10.30
2018,11,16,02,17,10.30
2018,11,16,02,18,10.30
2018,11,16,02,19,10.30
2018,11,16,02,20,10.30
2018,11,16,02,21,10.30
2018,11,16,02,22,10.30
2018,11,16,02,23,10.30
2018,11,16,02,24,10.30
2018,11,16,02,25,10.30
2018,11,16,02,26,10.30
2018,11,16,02,27,10.30
2018,11,16,02,28,10.30
2018,11,16,02,29,10.30
2018,11,16,02,30,10.30
2018,11,16,02,31,10.30
2018,11,16,02,32,10.30
2018,11,16,02,33,10.30
2018,11,16,02,34,10.30
2018,11,16,02,35,10.30
2018,11,16,02,36,10.30
2018,11,16,02,37,10.30
2018,11,16,02,38,10.30
2018,11,16,02,39,10.30
2018,11,16,02,40,10.30
2018,11,16,02,41,10.30
2018,11,16,02,42,10.30
2018,11,16,02,43,10.30
2018,11,16,02,44,10.30
2018,11,16,02,45,10.30
2018,11,16,02,46,10.30
2018,11,16,02,47,10.30
2018,11,16,02,48,10.30
2018,11,16,02,49,10.30
2018,11,16,02,50,10.30
2018,11,16,02,51,10.30
2018,11,16,02,52,10.30
2018,11,16,02,53,10.30
2018,11,16,02,54,10.30
2018,11,16,02,55,10.30
2018,11,16,02,56,10.30
2018,11,16,02,57,10.30
2018,11,16,02,58,10.30
2018,11,16,02,59,10.30
2018,11,16,03,00,10.30
2018,11,16,03,01,10.30
2018,11,16,03,02,10.30
2018,11,16,03,03,10.30
2018,11,16,03,04,10.20
2018,11,16,03,05,10.20
2018,11,16,03,06,10.20
2018,11,16,03,07,10.20
2018,11,16,03,08,10.20
2018,11,16,03,09,10.20
2018,11,16,03,10,10.20
2018,11,16,03,11,10.20
2018,11,16,03,12,10.20
2018,11,16,03,13,10.20
2018,11,16,03,14,10.20
2018,11,16,03,15,10.20
2018,11,16,03,16,10.20
2018,11,16,03,17,10.20
2018,11,16,03,18,10.20
2018,11,16,03,19,10.20
2018,11,16,03,20,10.20
2018,11,16,03,21,10.20
2018,11,16,03,22,10.10
2018,11,16,03,23,10.10
2018,11,16,03,24,10.10
2018,11,16,03,25,10.10
2018,11,16,03,26,10.10
2018,11,16,03,27,10.10
2018,11,16,03,28,10.10
2018,11,16,03,29,10.10
2018,11,16,03,30,10.10
2018,11,16,03,31,10.10
2018,11,16,03,32,10.10
2018,11,16,03,33,10.10
2018,11,16,03,34,10.10
2018,11,16,03,35,10.10
2018,11,16,03,36,10.10
2018,11,16,03,37,10.10
2018,11,16,03,38,10.00
2018,11,16,03,39,10.00
2018,11,16,03,40,10.00
2018,11,16,03,41,10.00
2018,11,16,03,42,10.00
2018,11,16,03,43,10.00
2018,11,16,03,44,10.00
2018,11,16,03,45,10.00
2018,11,16,03,46,10.00
2018,11,16,03,47,10.00
2018,11,16,03,48,10.00
2018,11,16,03,49,10.00
2018,11,16,03,50,10.00
2018,11,16,03,51,10.00
2018,11,16,03,52,10.00
2018,11,16,03,53,10.00
2018,11,16,03,54,10.00
2018,11,16,03,55,10.00
2018,11,16,03,56,9.90
2018,11,16,03,57,9.90
2018,11,16,03,58,9.90
2018,11,16,03,59,9.90
2018,11,16,04,00,9.90
2018,11,16,04,01,9.90
2018,11,16,04,02,9.90
2018,11,16,04,03,9.90
2018,11,16,04,04,9.90
2018,11,16,04,05,9.80
2018,11,16,04,06,9.80
2018,11,16,04,07,9.80
2018,11,16,04,08,9.80
2018,11,16,04,09,9.80
2018,11,16,04,10,9.80
2018,11,16,04,11,9.80
2018,11,16,04,12,9.80
2018,11,16,04,13,9.80
2018,11,16,04,14,9.80
2018,11,16,04,15,9.80
2018,11,16,04,16,9.80
2018,11,16,04,17,9.80
2018,11,16,04,18,9.80
2018,11,16,04,19,9.80
2018,11,16,04,20,9.80
2018,11,16,04,21,9.80
2018,11,16,04,22,9.80
2018,11,16,04,23,9.80
2018,11,16,04,24,9.80
2018,11,16,04,25,9.80
2018,11,16,04,26,9.80
2018,11,16,04,27,9.80
2018,11,16,04,28,9.80
2018,11,16,04,29,9.80
2018,11,16,04,30,9.80
2018,11,16,04,31,9.80
2018,11,16,04,32,9.80
2018,11,16,04,33,9.70
2018,11,16,04,34,9.70
2018,11,16,04,35,9.70
2018,11,16,04,36,9.70
2018,11,16,04,37,9.70
2018,11,16,04,38,9.70
2018,11,16,04,39,9.70
2018,11,16,04,40,9.70
2018,11,16,04,41,9.70
2018,11,16,04,42,9.70
2018,11,16,04,43,9.70
2018,11,16,04,44,9.70
2018,11,16,04,45,9.60
2018,11,16,04,46,9.60
2018,11,16,04,47,9.60
2018,11,16,04,48,9.60
2018,11,16,04,49,9.60
2018,11,16,04,50,9.50
2018,11,16,04,51,9.50
2018,11,16,04,52,9.50
2018,11,16,04,53,9.50
2018,11,16,04,54,9.40
2018,11,16,04,55,9.40
2018,11,16,04,56,9.40
2018,11,16,04,57,9.40
2018,11,16,04,58,9.40
2018,11,16,04,59,9.40
2018,11,16,05,00,9.30
2018,11,16,05,01,9.30
2018,11,16,05,02,9.30
2018,11,16,05,03,9.30
2018,11,16,05,04,9.30
2018,11,16,05,05,9.30
2018,11,16,05,06,9.30
2018,11,16,05,07,9.30
2018,11,16,05,08,9.20
2018,11,16,05,09,9.20
2018,11,16,05,10,9.20
2018,11,16,05,11,9.20
2018,11,16,05,12,9.20
2018,11,16,05,13,9.20
2018,11,16,05,14,9.20
2018,11,16,05,15,9.10
2018,11,16,05,16,9.10
2018,11,16,05,17,9.10
2018,11,16,05,18,9.10
2018,11,16,05,19,9.10
2018,11,16,05,20,9.10
2018,11,16,05,21,9.00
2018,11,16,05,22,9.00
2018,11,16,05,23,8.90
2018,11,16,05,24,8.90
2018,11,16,05,25,8.90
2018,11,16,05,26,8.90
2018,11,16,05,27,8.90
2018,11,16,05,28,8.80
2018,11,16,05,29,8.80
2018,11,16,05,30,8.80
2018,11,16,05,31,8.80
2018,11,16,05,32,8.80
2018,11,16,05,33,8.80
2018,11,16,05,34,8.80
2018,11,16,05,35,8.80
2018,11,16,05,36,8.80
2018,11,16,05,37,8.80
2018,11,16,05,38,8.70
2018,11,16,05,39,8.70
2018,11,16,05,40,8.70
2018,11,16,05,41,8.70
2018,11,16,05,42,8.70
2018,11,16,05,43,8.70
2018,11,16,05,44,8.70
2018,11,16,05,45,8.60
2018,11,16,05,46,8.60
2018,11,16,05,47,8.60
2018,11,16,05,48,8.60
2018,11,16,05,49,8.60
2018,11,16,05,50,8.50
2018,11,16,05,51,8.50
2018,11,16,05,52,8.50
2018,11,16,05,53,8.50
2018,11,16,05,54,8.50
2018,11,16,05,55,8.50
2018,11,16,05,56,8.50
2018,11,16,05,57,8.40
2018,11,16,05,58,8.40
2018,11,16,05,59,8.40
2018,11,16,06,00,8.40
2018,11,16,06,01,8.40
2018,11,16,06,02,8.30
2018,11,16,06,03,8.30
2018,11,16,06,04,8.30
2018,11,16,06,05,8.30
2018,11,16,06,06,8.30
2018,11,16,06,07,8.30
2018,11,16,06,08,8.30
2018,11,16,06,09,8.30
2018,11,16,06,10,8.30
2018,11,16,06,11,8.20
2018,11,16,06,12,8.20
2018,11,16,06,13,8.20
2018,11,16,06,14,8.20
2018,11,16,06,15,8.20
2018,11,16,06,16,8.20
2018,11,16,06,17,8.20
2018,11,16,06,18,8.20
2018,11,16,06,19,8.20
2018,11,16,06,20,8.20
2018,11,16,06,21,8.20
2018,11,16,06,22,8.20
2018,11,16,06,23,8.10
2018,11,16,06,24,8.10
2018,11,16,06,25,8.10
2018,11,16,06,26,8.10
2018,11,16,06,27,8.10
2018,11,16,06,28,8.00
2018,11,16,06,29,8.00
2018,11,16,06,30,8.00
2018,11,16,06,31,8.00
2018,11,16,06,32,8.00
2018,11,16,06,33,8.00
2018,11,16,06,34,8.00
2018,11,16,06,35,8.00
2018,11,16,06,36,8.00
2018,11,16,06,37,7.90
2018,11,16,06,38,7.90
2018,11,16,06,39,7.90
2018,11,16,06,40,7.90
2018,11,16,06,41,7.90
2018,11,16,06,42,7.90
2018,11,16,06,43,7.90
2018,11,16,06,44,7.90
2018,11,16,06,45,7.90
2018,11,16,06,46,7.90
2018,11,16,06,47,7.80
2018,11,16,06,48,7.80
2018,11,16,06,49,7.80
2018,11,16,06,50,7.80
2018,11,16,06,51,7.80
2018,11,16,06,52,7.80
2018,11,16,06,53,7.80
2018,11,16,06,54,7.80
2018,11,16,06,55,7.80
2018,11,16,06,56,7.80
2018,11,16,06,57,7.80
2018,11,16,06,58,7.80
2018,11,16,06,59,7.80
2018,11,16,07,00,7.80
2018,11,16,07,01,7.80
2018,11,16,07,02,7.80
2018,11,16,07,03,7.80
2018,11,16,07,04,7.80
2018,11,16,07,05,7.80
2018,11,16,07,06,7.70
2018,11,16,07,07,7.70
2018,11,16,07,08,7.70
2018,11,16,07,09,7.70
2018,11,16,07,10,7.70
2018,11,16,07,11,7.70
2018,11,16,07,12,7.70
2018,11,16,07,13,7.70
2018,11,16,07,14,7.70
2018,11,16,07,15,7.70
2018,11,16,07,16,7.70
2018,11,16,07,17,7.70
2018,11,16,07,18,7.70
2018,11,16,07,19,7.60
2018,11,16,07,20,7.60
2018,11,16,07,21,7.60
2018,11,16,07,22,7.60
2018,11,16,07,23,7.60
2018,11,16,07,24,7.60
2018,11,16,07,25,7.60
2018,11,16,07,26,7.60
2018,11,16,07,27,7.60
2018,11,16,07,28,7.60
2018,11,16,07,29,7.60
2018,11,16,07,30,7.60
2018,11,16,07,31,7.60
2018,11,16,07,32,7.60
2018,11,16,07,33,7.60
2018,11,16,07,34,7.60
2018,11,16,07,35,7.60
2018,11,16,07,36,7.60
2018,11,16,07,37,7.60
2018,11,16,07,38,7.60
2018,11,16,07,39,7.60
2018,11,16,07,40,7.60
2018,11,16,07,41,7.60
2018,11,16,07,42,7.60
2018,11,16,07,43,7.60
2018,11,16,07,44,7.60
2018,11,16,07,45,7.60
2018,11,16,07,46,7.60
2018,11,16,07,47,7.60
2018,11,16,07,48,7.60
2018,11,16,07,49,7.60
2018,11,16,07,50,7.60
2018,11,16,07,51,7.60
2018,11,16,07,52,7.60
2018,11,16,07,53,7.60
2018,11,16,07,54,7.60
2018,11,16,07,55,7.70
2018,11,16,07,56,7.70
2018,11,16,07,57,7.70
2018,11,16,07,58,7.70
2018,11,16,07,59,7.70
2018,11,16,08,00,7.70
2018,11,16,08,01,7.70
2018,11,16,08,02,7.70
2018,11,16,08,03,7.70
2018,11,16,08,04,7.70
2018,11,16,08,05,7.70
2018,11,16,08,06,7.70
2018,11,16,08,07,7.70
2018,11,16,08,08,7.70
2018,11,16,08,09,7.80
2018,11,16,08,10,7.80
2018,11,16,08,11,7.80
2018,11,16,08,12,7.80
2018,11,16,08,13,7.80
2018,11,16,08,14,7.80
2018,11,16,08,15,7.80
2018,11,16,08,16,7.80
2018,11,16,08,17,7.80
2018,11,16,08,18,7.90
2018,11,16,08,19,7.90
2018,11,16,08,20,7.90
2018,11,16,08,21,7.90
2018,11,16,08,22,7.90
2018,11,16,08,23,7.90
2018,11,16,08,24,7.90
2018,11,16,08,25,7.90
2018,11,16,08,26,7.90
2018,11,16,08,27,8.00
2018,11,16,08,28,8.00
2018,11,16,08,29,8.00
2018,11,16,08,30,8.00
2018,11,16,08,31,8.10
2018,11,16,08,32,8.10
2018,11,16,08,33,8.10
2018,11,16,08,34,8.10
2018,11,16,08,35,8.10
2018,11,16,08,36,8.10
2018,11,16,08,37,8.10
2018,11,16,08,38,8.10
2018,11,16,08,39,8.10
2018,11,16,08,40,8.20
2018,11,16,08,41,8.20
2018,11,16,08,42,8.20
2018,11,16,08,43,8.20
2018,11,16,08,44,8.20
2018,11,16,08,45,8.20
2018,11,16,08,46,8.20
2018,11,16,08,47,8.20
2018,11,16,08,48,8.30
2018,11,16,08,49,8.30
2018,11,16,08,50,8.30
2018,11,16,08,51,8.30
2018,11,16,08,52,8.30
2018,11,16,08,53,8.30
2018,11,16,08,54,8.30
2018,11,16,08,55,8.30
2018,11,16,08,56,8.30
2018,11,16,08,57,8.30
2018,11,16,08,58,8.30
2018,11,16,08,59,8.30
2018,11,16,09,00,8.30
2018,11,16,09,01,8.40
2018,11,16,09,02,8.40
2018,11,16,09,03,8.40
2018,11,16,09,04,8.40
2018,11,16,09,05,8.40
2018,11,16,09,06,8.40
2018,11,16,09,07,8.40
2018,11,16,09,08,8.40
2018,11,16,09,09,8.40
2018,11,16,09,10,8.40
2018,11,16,09,11,8.50
2018,11,16,09,12,8.50
2018,11,16,09,13,8.50
2018,11,16,09,14,8.60
2018,11,16,09,15,8.60
2018,11,16,09,16,8.60
2018,11,16,09,17,8.60
2018,11,16,09,18,8.60
2018,11,16,09,19,8.60
2018,11,16,09,20,8.60
2018,11,16,09,21,8.60
2018,11,16,09,22,8.60
2018,11,16,09,23,8.60
2018,11,16,09,24,8.60
2018,11,16,09,25,8.70
2018,11,16,09,26,8.70
2018,11,16,09,27,8.70
2018,11,16,09,28,8.70
2018,11,16,09,29,8.70
2018,11,16,09,30,8.70
2018,11,16,09,31,8.80
2018,11,16,09,32,8.80
2018,11,16,09,33,8.80
2018,11,16,09,34,8.80
2018,11,16,09,35,8.80
2018,11,16,09,36,8.90
2018,11,16,09,37,8.90
2018,11,16,09,38,8.90
2018,11,16,09,39,8.90
2018,11,16,09,40,9.00
2018,11,16,09,41,9.00
2018,11,16,09,42,9.10
2018,11,16,09,43,9.10
2018,11,16,09,44,9.20
2018,11,16,09,45,9.20
2018,11,16,09,46,9.20
2018,11,16,09,47,9.20
2018,11,16,09,48,9.30
2018,11,16,09,49,9.30
2018,11,16,09,50,9.30
2018,11,16,09,51,9.30
2018,11,16,09,52,9.40
2018,11,16,09,53,9.40
2018,11,16,09,54,9.40
2018,11,16,09,55,9.40
2018,11,16,09,56,9.50
2018,11,16,09,57,9.50
2018,11,16,09,58,9.50
2018,11,16,09,59,9.60
2018,11,16,10,00,9.60
2018,11,16,10,01,9.60
2018,11,16,10,02,9.70
2018,11,16,10,03,9.70
2018,11,16,10,04,9.70
2018,11,16,10,05,9.70
2018,11,16,10,06,9.70
2018,11,16,10,07,9.60
2018,11,16,10,08,9.60
2018,11,16,10,09,9.60
2018,11,16,10,10,9.60
2018,11,16,10,11,9.60
2018,11,16,10,12,9.70
2018,11,16,10,13,9.70
2018,11,16,10,14,9.70
2018,11,16,10,15,9.70
2018,11,16,10,16,9.80
2018,11,16,10,17,9.80
2018,11,16,10,18,9.80
2018,11,16,10,19,9.80
2018,11,16,10,20,9.90
2018,11,16,10,21,9.90
2018,11,16,10,22,9.90
2018,11,16,10,23,9.90
2018,11,16,10,24,9.90
2018,11,16,10,25,9.90
2018,11,16,10,26,9.90
2018,11,16,10,27,9.90
2018,11,16,10,28,9.90
2018,11,16,10,29,10.00
2018,11,16,10,30,10.00
2018,11,16,10,31,10.10
2018,11,16,10,32,10.10
2018,11,16,10,33,10.20
2018,11,16,10,34,10.20
2018,11,16,10,35,10.20
2018,11,16,10,36,10.20
2018,11,16,10,37,10.20
2018,11,16,10,38,10.20
2018,11,16,10,39,10.10
2018,11,16,10,40,10.10
2018,11,16,10,41,10.10
2018,11,16,10,42,10.10
2018,11,16,10,43,10.10
2018,11,16,10,44,10.10
2018,11,16,10,45,10.10
2018,11,16,10,46,10.10
2018,11,16,10,47,10.10
2018,11,16,10,48,10.10
2018,11,16,10,49,10.10
2018,11,16,10,50,10.10
2018,11,16,10,51,10.20
2018,11,16,10,52,10.20
2018,11,16,10,53,10.20
2018,11,16,10,54,10.20
2018,11,16,10,55,10.20
2018,11,16,10,56,10.20
2018,11,16,10,57,10.20
2018,11,16,10,58,10.20
2018,11,16,10,59,10.20
2018,11,16,11,00,10.20
2018,11,16,11,01,10.20
2018,11,16,11,02,10.20
2018,11,16,11,03,10.20
2018,11,16,11,04,10.20
2018,11,16,11,05,10.20
2018,11,16,11,06,10.20
2018,11,16,11,07,10.20
2018,11,16,11,08,10.20
2018,11,16,11,09,10.20
2018,11,16,11,10,10.20
2018,11,16,11,11,10.30
2018,11,16,11,12,10.30
2018,11,16,11,13,10.30
2018,11,16,11,14,10.40
2018,11,16,11,15,10.40
2018,11,16,11,16,10.40
2018,11,16,11,17,10.40
2018,11,16,11,18,10.40
2018,11,16,11,19,10.50
2018,11,16,11,20,10.40
2018,11,16,11,21,10.40
2018,11,16,11,22,10.40
2018,11,16,11,23,10.40
2018,11,16,11,24,10.30
2018,11,16,11,25,10.30
2018,11,16,11,26,10.30
2018,11,16,11,27,10.20
2018,11,16,11,28,10.20
2018,11,16,11,29,10.20
2018,11,16,11,30,10.20
2018,11,16,11,31,10.20
2018,11,16,11,32,10.20
2018,11,16,11,33,10.20
2018,11,16,11,34,10.20
2018,11,16,11,35,10.20
2018,11,16,11,36,10.20
2018,11,16,11,37,10.20
2018,11,16,11,38,10.10
2018,11,16,11,39,10.10
2018,11,16,11,40,10.10
2018,11,16,11,41,10.00
2018,11,16,11,42,10.00
2018,11,16,11,43,10.00
2018,11,16,11,44,10.00
2018,11,16,11,45,10.10
2018,11,16,11,46,10.10
2018,11,16,11,47,10.10
2018,11,16,11,48,10.10
2018,11,16,11,49,10.20
2018,11,16,11,50,10.20
2018,11,16,11,51,10.20
2018,11,16,11,52,10.20
2018,11,16,11,53,10.30
2018,11,16,11,54,10.30
2018,11,16,11,55,10.30
2018,11,16,11,56,10.30
2018,11,16,11,57,10.20
2018,11,16,11,58,10.20
2018,11,16,11,59,10.20
2018,11,16,12,00,10.20
2018,11,16,12,01,10.30
2018,11,16,12,02,10.30
2018,11,16,12,03,10.30
2018,11,16,12,04,10.30
2018,11,16,12,05,10.30
2018,11,16,12,06,10.30
2018,11,16,12,07,10.30
2018,11,16,12,08,10.30
2018,11,16,12,09,10.30
2018,11,16,12,10,10.30
2018,11,16,12,11,10.30
2018,11,16,12,12,10.30
2018,11,16,12,13,10.30
2018,11,16,12,14,10.30
2018,11,16,12,15,10.30
2018,11,16,12,16,10.30
2018,11,16,12,17,10.30
2018,11,16,12,18,10.30
2018,11,16,12,19,10.40
2018,11,16,12,20,10.40
2018,11,16,12,21,10.40
2018,11,16,12,22,10.50
2018,11,16,12,23,10.50
2018,11,16,12,24,10.50
2018,11,16,12,25,10.60
2018,11,16,12,26,10.60
2018,11,16,12,27,10.60
2018,11,16,12,28,10.70
2018,11,16,12,29,10.70
2018,11,16,12,30,10.70
2018,11,16,12,31,10.80
2018,11,16,12,32,10.80
2018,11,16,12,33,10.90
2018,11,16,12,34,10.90
2018,11,16,12,35,10.90
2018,11,16,12,36,11.00
2018,11,16,12,37,11.00
2018,11,16,12,38,11.10
2018,11,16,12,39,11.10
2018,11,16,12,40,11.10
2018,11,16,12,41,11.10
2018,11,16,12,42,11.10
2018,11,16,12,43,11.10
2018,11,16,12,44,11.10
2018,11,16,12,45,11.10
2018,11,16,12,46,11.10
2018,11,16,12,47,11.20
2018,11,16,12,48,11.20
2018,11,16,12,49,11.20
2018,11,16,12,50,11.20
2018,11,16,12,51,11.30
2018,11,16,12,52,11.30
2018,11,16,12,53,11.30
2018,11,16,12,54,11.40
2018,11,16,12,55,11.40
2018,11,16,12,56,11.40
2018,11,16,12,57,11.40
2018,11,16,12,58,11.50
2018,11,16,12,59,11.50
2018,11,16,13,00,11.60
2018,11,16,13,01,11.60
2018,11,16,13,02,11.60
2018,11,16,13,03,11.70
2018,11,16,13,04,11.70
2018,11,16,13,05,11.70
2018,11,16,13,06,11.80
2018,11,16,13,07,11.80
2018,11,16,13,08,11.80
2018,11,16,13,09,11.80
2018,11,16,13,10,11.90
2018,11,16,13,11,11.90
2018,11,16,13,12,11.90
2018,11,16,13,13,11.90
2018,11,16,13,14,12.00
2018,11,16,13,15,12.00
2018,11,16,13,16,12.10
2018,11,16,13,17,12.10
2018,11,16,13,18,12.10
2018,11,16,13,19,12.20
2018,11,16,13,20,12.20
2018,11,16,13,21,12.20
2018,11,16,13,22,12.20
2018,11,16,13,23,12.20
2018,11,16,13,24,12.20
2018,11,16,13,25,12.30
2018,11,16,13,26,12.30
2018,11,16,13,27,12.30
2018,11,16,13,28,12.40
2018,11,16,13,29,12.40
2018,11,16,13,30,12.50
2018,11,16,13,31,12.60
2018,11,16,13,32,12.60
2018,11,16,13,33,12.70
2018,11,16,13,34,12.70
2018,11,16,13,35,12.70
2018,11,16,13,36,12.70
2018,11,16,13,37,12.70
2018,11,16,13,38,12.80
2018,11,16,13,39,12.80
2018,11,16,13,40,12.80
2018,11,16,13,41,12.80
2018,11,16,13,42,12.90
2018,11,16,13,43,12.90
2018,11,16,13,44,13.00
2018,11,16,13,45,13.00
2018,11,16,13,46,13.10
2018,11,16,13,47,13.10
2018,11,16,13,48,13.10
2018,11,16,13,49,13.10
2018,11,16,13,50,13.10
2018,11,16,13,51,13.20
2018,11,16,13,52,13.20
2018,11,16,13,53,13.20
2018,11,16,13,54,13.10
2018,11,16,13,55,13.10
2018,11,16,13,56,13.10
2018,11,16,13,57,13.00
2018,11,16,13,58,13.00
2018,11,16,13,59,12.90
2018,11,16,14,00,12.90
2018,11,16,14,01,12.80
2018,11,16,14,02,12.80
2018,11,16,14,03,12.80
2018,11,16,14,04,12.80
2018,11,16,14,05,12.80
2018,11,16,14,06,12.70
2018,11,16,14,07,12.70
2018,11,16,14,08,12.70
2018,11,16,14,09,12.60
2018,11,16,14,10,12.70
2018,11,16,14,11,12.70
2018,11,16,14,12,12.70
2018,11,16,14,13,12.80
2018,11,16,14,14,12.80
2018,11,16,14,15,12.80
2018,11,16,14,16,12.80
2018,11,16,14,17,12.80
2018,11,16,14,18,12.80
2018,11,16,14,19,12.90
2018,11,16,14,20,12.90
2018,11,16,14,21,12.90
2018,11,16,14,22,12.90
2018,11,16,14,23,12.90
2018,11,16,14,24,12.80
2018,11,16,14,25,12.80
2018,11,16,14,26,12.80
2018,11,16,14,27,12.80
2018,11,16,14,28,12.80
2018,11,16,14,29,12.80
2018,11,16,14,30,12.80
2018,11,16,14,31,12.80
2018,11,16,14,32,12.80
2018,11,16,14,33,12.90
2018,11,16,14,34,12.90
2018,11,16,14,35,12.90
2018,11,16,14,36,12.90
2018,11,16,14,37,13.00
2018,11,16,14,38,13.00
2018,11,16,14,39,13.00
2018,11,16,14,40,13.10
2018,11,16,14,41,13.10
2018,11,16,14,42,13.10
2018,11,16,14,43,13.10
2018,11,16,14,44,13.10
2018,11,16,14,45,13.10
2018,11,16,14,46,13.10
2018,11,16,14,47,13.20
2018,11,16,14,48,13.20
2018,11,16,14,49,13.20
2018,11,16,14,50,13.20
2018,11,16,14,51,13.30
2018,11,16,14,52,13.30
2018,11,16,14,53,13.30
2018,11,16,14,54,13.30
2018,11,16,14,55,13.30
2018,11,16,14,56,13.30
2018,11,16,14,57,13.30
2018,11,16,14,58,13.30
2018,11,16,14,59,13.40
2018,11,16,15,00,13.40
2018,11,16,15,01,13.50
2018,11,16,15,02,13.50
2018,11,16,15,03,13.60
2018,11,16,15,04,13.60
2018,11,16,15,05,13.70
2018,11,16,15,06,13.70
2018,11,16,15,07,13.80
2018,11,16,15,08,13.80
2018,11,16,15,09,13.80
2018,11,16,15,10,13.80
2018,11,16,15,11,13.80
2018,11,16,15,12,13.80
2018,11,16,15,13,13.80
2018,11,16,15,14,13.80
2018,11,16,15,15,13.80
2018,11,16,15,16,13.80
2018,11,16,15,17,13.80
2018,11,16,15,18,13.80
2018,11,16,15,19,13.70
2018,11,16,15,20,13.70
2018,11,16,15,21,13.70
2018,11,16,15,22,13.60
2018,11,16,15,23,13.60
2018,11,16,15,24,13.50
2018,11,16,15,25,13.40
2018,11,16,15,26,13.40
2018,11,16,15,27,13.40
2018,11,16,15,28,13.30
2018,11,16,15,29,13.30
2018,11,16,15,30,13.30
2018,11,16,15,31,13.20
2018,11,16,15,32,13.10
2018,11,16,15,33,13.10
2018,11,16,15,34,13.00
2018,11,16,15,35,12.90
2018,11,16,15,36,12.90
2018,11,16,15,37,12.80
2018,11,16,15,38,12.80
2018,11,16,15,39,12.80
2018,11,16,15,40,12.80
2018,11,16,15,41,12.80
2018,11,16,15,42,12.80
2018,11,16,15,43,12.80
2018,11,16,15,44,12.80
2018,11,16,15,45,12.80
2018,11,16,15,46,12.80
2018,11,16,15,47,12.70
2018,11,16,15,48,12.80
2018,11,16,15,49,12.80
2018,11,16,15,50,12.80
2018,11,16,15,51,12.80
2018,11,16,15,52,12.80
2018,11,16,15,53,12.80
2018,11,16,15,54,12.80
2018,11,16,15,55,12.80
2018,11,16,15,56,12.70
2018,11,16,15,57,12.70
2018,11,16,15,58,12.60
2018,11,16,15,59,12.60
2018,11,16,16,00,12.50
2018,11,16,16,01,12.40
2018,11,16,16,02,12.40
2018,11,16,16,03,12.30
2018,11,16,16,04,12.20
2018,11,16,16,05,12.20
2018,11,16,16,06,12.10
2018,11,16,16,07,12.10
2018,11,16,16,08,12.00
2018,11,16,16,09,11.90
2018,11,16,16,10,11.90
2018,11,16,16,11,11.80
2018,11,16,16,12,11.70
2018,11,16,16,13,11.60
2018,11,16,16,14,11.60
2018,11,16,16,15,11.50
2018,11,16,16,16,11.40
2018,11,16,16,17,11.30
2018,11,16,16,18,11.30
2018,11,16,16,19,11.20
2018,11,16,16,20,11.20
2018,11,16,16,21,11.10
2018,11,16,16,22,11.00
2018,11,16,16,23,11.00
2018,11,16,16,24,10.90
2018,11,16,16,25,10.90
2018,11,16,16,26,10.80
2018,11,16,16,27,10.80
2018,11,16,16,28,10.80
2018,11,16,16,29,10.70
2018,11,16,16,30,10.70
2018,11,16,16,31,10.70
2018,11,16,16,32,10.60
2018,11,16,16,33,10.60
2018,11,16,16,34,10.50
2018,11,16,16,35,10.50
2018,11,16,16,36,10.40
2018,11,16,16,37,10.40
2018,11,16,16,38,10.30
2018,11,16,16,39,10.30
2018,11,16,16,40,10.30
2018,11,16,16,41,10.20
2018,11,16,16,42,10.20
2018,11,16,16,43,10.20
2018,11,16,16,44,10.10
2018,11,16,16,45,10.10
2018,11,16,16,46,10.10
2018,11,16,16,47,10.10
2018,11,16,16,48,10.00
2018,11,16,16,49,10.00
2018,11,16,16,50,10.00
2018,11,16,16,51,10.00
2018,11,16,16,52,10.00
2018,11,16,16,53,9.90
2018,11,16,16,54,9.90
2018,11,16,16,55,9.90
2018,11,16,16,56,9.90
2018,11,16,16,57,9.90
2018,11,16,16,58,9.80
2018,11,16,16,59,9.80
2018,11,16,17,00,9.80
2018,11,16,17,01,9.80
2018,11,16,17,02,9.80
2018,11,16,17,03,9.70
2018,11,16,17,04,9.70
2018,11,16,17,05,9.70
2018,11,16,17,06,9.70
2018,11,16,17,07,9.60
2018,11,16,17,08,9.60
2018,11,16,17,09,9.60
2018,11,16,17,10,9.50
2018,11,16,17,11,9.50
2018,11,16,17,12,9.50
2018,11,16,17,13,9.40
2018,11,16,17,14,9.40
2018,11,16,17,15,9.40
2018,11,16,17,16,9.40
2018,11,16,17,17,9.40
2018,11,16,17,18,9.40
2018,11,16,17,19,9.30
2018,11,16,17,20,9.30
2018,11,16,17,21,9.30
2018,11,16,17,22,9.20
2018,11,16,17,23,9.20
2018,11,16,17,24,9.20
2018,11,16,17,25,9.20
2018,11,16,17,26,9.20
2018,11,16,17,27,9.20
2018,11,16,17,28,9.10
2018,11,16,17,29,9.10
2018,11,16,17,30,9.10
2018,11,16,17,31,9.10
2018,11,16,17,32,9.10
2018,11,16,17,33,9.10
2018,11,16,17,34,8.90
2018,11,16,17,35,8.90
2018,11,16,17,36,8.90
2018,11,16,17,37,8.90
2018,11,16,17,38,8.90